Weather History for KTOL - April, 2013

Change the Weather History Date:

Thursday, April 25, 2013

  Actual Average Record
Temperature  
Mean Temperature 42 °F 53 °F  
Max Temperature 51 °F 64 °F 88 °F (1990)
Min Temperature 33 °F 42 °F 21 °F (1974)
Degree Days  
Heating Degree Days 23 12  
Month to date heating degree days 501 419  
Since 1 July heating degree days 5928 5845  
Cooling Degree Days 0 0  
Month to date cooling degree days 0 0  
Year to date cooling degree days 0 0  
Moisture  
Dew Point 29 °F    
Average Humidity 56    
Maximum Humidity 76    
Minimum Humidity 36    
Precipitation  
Precipitation 0.02 in 0.11 in 1.30 in (2007)
Month to date precipitation 4.35 2.67  
Year to date precipitation 11.52 9.27  
Snow  
Snow 0.00 in 0.00 in - ()
Month to date snowfall 0.3 1.2  
Since 1 July snowfall 22.4 37.4  
Snow Depth 0.00 in    
Sea Level Pressure  
Sea Level Pressure 30.22 in    
Wind  
Wind Speed 11 mph (WSW)    
Max Wind Speed 25 mph    
Max Gust Speed 32 mph    
Visibility 10 miles    
Events Rain    
T = Trace of Precipitation, MM = Missing Value Source: NWS Daily Summary

Daily Weather History Graph

Daily Weather History Graph

Search for Another Location

Airport or City:

Trip Planner

Search our weather history database for the weather conditions in past years. The results will help you decide how hot, cold, wet, or windy it might be!

Date:

Astronomy

Apr. 25, 2013 Rise Set
Actual Time 6:39 AM EDT 8:26 PM EDT
Civil Twilight 6:10 AM EDT 8:56 PM EDT
Nautical Twilight 5:34 AM EDT 9:32 PM EDT
Astronomical Twilight 4:55 AM EDT 10:11 PM EDT
Moon 8:39 PM EDT (4/25) 6:22 AM EDT (4/25)
Length of Visible Light 14h 46m
Length of Day
13h 47m
Full, 100% of the Moon is Illuminated
Apr 25
Full
Apr 25
Full
May 2
Last Quarter
May 9
New
May 18
First Quarter

Hourly Weather History & Observations

Time (EDT) Temp. Windchill Dew Point Humidity Pressure Visibility Wind Dir Wind Speed Gust Speed Precip Events Conditions
12:52 AM 36.0 °F 31.1 °F 24.1 °F 62% 30.18 in 10.0 mi SW 5.8 mph - N/A   Clear
1:52 AM 35.1 °F 30.1 °F 24.1 °F 64% 30.18 in 10.0 mi WSW 5.8 mph - N/A   Clear
2:52 AM 36.0 °F 30.3 °F 25.0 °F 64% 30.17 in 10.0 mi SW 6.9 mph - N/A   Clear
3:52 AM 36.0 °F 30.3 °F 27.0 °F 70% 30.17 in 10.0 mi SW 6.9 mph - N/A   Clear
4:52 AM 35.1 °F 30.1 °F 28.0 °F 76% 30.18 in 10.0 mi SW 5.8 mph - N/A   Clear
5:52 AM 35.1 °F 28.6 °F 28.9 °F 78% 30.18 in 10.0 mi SSW 8.1 mph - N/A   Clear
6:52 AM 35.1 °F 28.6 °F 28.9 °F 78% 30.19 in 10.0 mi South 8.1 mph - N/A   Clear
7:52 AM 37.0 °F 30.4 °F 30.0 °F 76% 30.18 in 10.0 mi SSW 9.2 mph - N/A   Clear
8:52 AM 41.0 °F 33.9 °F 30.9 °F 67% 30.18 in 10.0 mi SW 12.7 mph 20.7 mph N/A   Clear
9:52 AM 45.0 °F 38.5 °F 32.0 °F 60% 30.17 in 10.0 mi SSW 13.8 mph 19.6 mph N/A   Scattered Clouds
10:52 AM 46.0 °F 39.6 °F 32.0 °F 58% 30.16 in 10.0 mi SSW 15.0 mph 25.3 mph N/A   Overcast
11:52 AM 46.9 °F - 32.0 °F 56% 30.17 in 10.0 mi SW 23.0 mph 29.9 mph N/A   Overcast
12:52 PM 46.9 °F - 37.0 °F 68% 30.18 in 10.0 mi West 13.8 mph - 0.00 in Rain Light Rain
1:52 PM 46.0 °F 38.5 °F 35.1 °F 66% 30.19 in 7.0 mi West 19.6 mph 26.5 mph 0.01 in Rain Light Rain
2:52 PM 44.1 °F 37.1 °F 35.1 °F 71% 30.21 in 10.0 mi West 15.0 mph 25.3 mph 0.01 in   Overcast
3:52 PM 50.0 °F - 30.0 °F 46% 30.20 in 10.0 mi West 23.0 mph 29.9 mph N/A   Scattered Clouds
4:52 PM 48.9 °F - 30.0 °F 48% 30.22 in 10.0 mi West 16.1 mph 26.5 mph N/A   Mostly Cloudy
5:52 PM 50.0 °F - 28.9 °F 44% 30.24 in 10.0 mi West 17.3 mph 24.2 mph N/A   Partly Cloudy
6:52 PM 50.0 °F - 25.0 °F 38% 30.27 in 10.0 mi West 16.1 mph - N/A   Scattered Clouds
7:52 PM 48.0 °F - 26.1 °F 42% 30.29 in 10.0 mi WNW 10.4 mph - N/A   Clear
8:52 PM 45.0 °F 40.6 °F 27.0 °F 49% 30.31 in 10.0 mi West 8.1 mph - N/A   Clear
9:52 PM 42.1 °F 39.2 °F 27.0 °F 55% 30.34 in 10.0 mi West 4.6 mph - N/A   Clear
10:52 PM 39.0 °F - 28.0 °F 65% 30.36 in 10.0 mi Calm Calm - N/A   Clear
11:52 PM 35.1 °F - 27.0 °F 72% 30.38 in 10.0 mi Calm Calm - N/A   Clear